| time (UTC) | temp C | wind direction | speed KPH | gust KPH | rain 1hr cm | rain 24hr cm | rain mn cm | humidity % | barometer mb |
| 20260505022517 | 13 | 203 | 1.6 | 8.0 | 0.00 | 0.00 | 0.00 | 83 | 1008.0 |
| 20260505021518 | 13 | 0.0 | 8.0 | 0.00 | 0.00 | 0.00 | 82 | 1008.0 | |
| 20260505020517 | 14 | 0.0 | 0.0 | 0.00 | 0.00 | 0.00 | 81 | 1008.0 | |
| 20260505015517 | 14 | 0.0 | 0.0 | 0.00 | 0.00 | 0.00 | 80 | 1008.0 | |
| 20260505014517 | 14 | 203 | 1.6 | 12.9 | 0.00 | 0.00 | 0.00 | 79 | 1008.0 |
| 20260505013537 | 15 | 0.0 | 8.0 | 0.00 | 0.00 | 0.00 | 76 | 1008.0 | |
| 20260505012517 | 15 | 0.0 | 4.8 | 0.00 | 0.00 | 0.00 | 75 | 1007.8 | |
| 20260505011517 | 15 | 0.0 | 0.0 | 0.00 | 0.00 | 0.00 | 74 | 1007.8 | |
| 20260505010517 | 15 | 0.0 | 0.0 | 0.00 | 0.00 | 0.00 | 73 | 1007.7 | |
| 20260505005557 | 15 | 203 | 1.6 | 4.8 | 0.00 | 0.00 | 0.00 | 73 | 1007.6 |
| 20260505004517 | 15 | 203 | 1.6 | 9.7 | 0.00 | 0.00 | 0.00 | 72 | 1007.6 |
| 20260505003538 | 15 | 203 | 1.6 | 9.7 | 0.00 | 0.00 | 0.00 | 71 | 1007.5 |
| 20260505002517 | 15 | 225 | 1.6 | 9.7 | 0.00 | 0.00 | 0.00 | 71 | 1007.3 |
| 20260505001517 | 16 | 225 | 4.8 | 9.7 | 0.00 | 0.00 | 0.00 | 70 | 1007.3 |
| 20260505000537 | 16 | 0.0 | 0.0 | 0.00 | 0.00 | 0.00 | 69 | 1007.2 | |
| 20260504235517 | 16 | 225 | 3.2 | 11.3 | 0.00 | 0.00 | 0.00 | 69 | 1007.1 |
| 20260504234517 | 16 | 203 | 1.6 | 6.4 | 0.00 | 0.00 | 0.00 | 68 | 1007.1 |
| 20260504233517 | 16 | 203 | 3.2 | 9.7 | 0.00 | 0.00 | 0.00 | 67 | 1007.1 |
| 20260504232518 | 16 | 203 | 3.2 | 11.3 | 0.00 | 0.00 | 0.00 | 66 | 1007.1 |
| 20260504231518 | 16 | 203 | 1.6 | 11.3 | 0.00 | 0.00 | 0.00 | 65 | 1007.1 |
| 20260504230538 | 16 | 225 | 1.6 | 9.7 | 0.00 | 0.00 | 0.00 | 66 | 1007.2 |
| 20260504225537 | 16 | 203 | 3.2 | 8.0 | 0.00 | 0.00 | 0.00 | 66 | 1007.1 |
| 20260504224518 | 16 | 203 | 3.2 | 11.3 | 0.00 | 0.00 | 0.00 | 65 | 1007.1 |
| 20260504223517 | 17 | 0.0 | 8.0 | 0.00 | 0.00 | 0.00 | 64 | 1007.1 | |
| 20260504222517 | 17 | 270 | 1.6 | 9.7 | 0.00 | 0.00 | 0.00 | 64 | 1007.1 |
| 20260504221517 | 17 | 270 | 3.2 | 8.0 | 0.00 | 0.00 | 0.00 | 63 | 1007.1 |
| 20260504220538 | 17 | 225 | 1.6 | 6.4 | 0.00 | 0.00 | 0.00 | 64 | 1007.1 |
| 20260504215518 | 17 | 203 | 3.2 | 9.7 | 0.00 | 0.00 | 0.00 | 64 | 1007.2 |
| 20260504214517 | 17 | 203 | 4.8 | 9.7 | 0.00 | 0.00 | 0.00 | 64 | 1007.2 |
| 20260504213516 | 17 | 203 | 4.8 | 12.9 | 0.00 | 0.00 | 0.00 | 64 | 1007.2 |
| 20260504212517 | 17 | 225 | 1.6 | 9.7 | 0.00 | 0.00 | 0.00 | 63 | 1007.3 |
| 20260504211517 | 17 | 225 | 3.2 | 9.7 | 0.00 | 0.00 | 0.00 | 62 | 1007.3 |
| 20260504210516 | 17 | 225 | 1.6 | 8.0 | 0.00 | 0.00 | 0.00 | 62 | 1007.3 |
| 20260504205516 | 17 | 203 | 4.8 | 11.3 | 0.00 | 0.00 | 0.00 | 62 | 1007.4 |
| 20260504204520 | 18 | 203 | 3.2 | 8.0 | 0.00 | 0.00 | 0.00 | 62 | 1007.4 |
| 20260504203557 | 18 | 225 | 1.6 | 9.7 | 0.00 | 0.00 | 0.00 | 60 | 1007.5 |
| 20260504202516 | 18 | 225 | 6.4 | 16.1 | 0.00 | 0.00 | 0.00 | 59 | 1007.4 |
| 20260504201537 | 18 | 225 | 6.4 | 14.5 | 0.00 | 0.00 | 0.00 | 58 | 1007.4 |
| 20260504200516 | 18 | 225 | 4.8 | 12.9 | 0.00 | 0.00 | 0.00 | 58 | 1007.4 |
| 20260504195517 | 18 | 225 | 4.8 | 11.3 | 0.00 | 0.00 | 0.00 | 58 | 1007.5 |
| 20260504194536 | 18 | 225 | 4.8 | 9.7 | 0.00 | 0.00 | 0.00 | 57 | 1007.5 |
| 20260504193517 | 18 | 203 | 3.2 | 9.7 | 0.00 | 0.00 | 0.00 | 56 | 1007.7 |
| 20260504192517 | 18 | 225 | 3.2 | 8.0 | 0.00 | 0.00 | 0.00 | 57 | 1007.8 |
| 20260504191516 | 18 | 225 | 4.8 | 12.9 | 0.00 | 0.00 | 0.00 | 57 | 1007.8 |
| 20260504190516 | 19 | 225 | 4.8 | 12.9 | 0.00 | 0.00 | 0.00 | 54 | 1008.0 |
| 20260504185516 | 19 | 203 | 3.2 | 11.3 | 0.00 | 0.00 | 0.00 | 55 | 1008.3 |
| 20260504184516 | 19 | 0.0 | 4.8 | 0.00 | 0.00 | 0.00 | 55 | 1008.3 | |
| 20260504183516 | 18 | 203 | 4.8 | 9.7 | 0.00 | 0.00 | 0.00 | 56 | 1008.4 |
| 20260504182517 | 19 | 203 | 4.8 | 12.9 | 0.00 | 0.00 | 0.00 | 56 | 1008.6 |
| 20260504181517 | 20 | 180 | 1.6 | 8.0 | 0.00 | 0.00 | 0.00 | 54 | 1008.6 |
| 20260504180516 | 20 | 203 | 1.6 | 11.3 | 0.00 | 0.00 | 0.00 | 53 | 1008.7 |
| 20260504175516 | 20 | 225 | 1.6 | 9.7 | 0.00 | 0.00 | 0.00 | 54 | 1008.8 |
| 20260504174516 | 19 | 225 | 1.6 | 9.7 | 0.00 | 0.00 | 0.00 | 57 | 1008.8 |
| 20260504173516 | 20 | 225 | 1.6 | 8.0 | 0.00 | 0.00 | 0.00 | 53 | 1009.0 |
| 20260504172517 | 20 | 225 | 3.2 | 9.7 | 0.00 | 0.00 | 0.00 | 54 | 1009.1 |
| 20260504171516 | 19 | 203 | 3.2 | 9.7 | 0.00 | 0.00 | 0.00 | 54 | 1009.1 |
| 20260504170517 | 20 | 225 | 1.6 | 8.0 | 0.00 | 0.00 | 0.00 | 54 | 1009.4 |
| 20260504150516 | 18 | 203 | 4.8 | 11.3 | 0.00 | 0.00 | 0.00 | 45 | 1010.4 |
| 20260504140516 | 18 | 270 | 6.4 | 17.7 | 0.00 | 0.00 | 0.00 | 40 | 1010.6 |
| 20260504130515 | 16 | 225 | 3.2 | 9.7 | 0.00 | 0.00 | 0.00 | 52 | 1011.1 |
| 20260504110537 | 10 | 0.0 | 0.0 | 0.00 | 0.00 | 0.00 | 74 | 1011.9 | |
| 20260504100537 | 7 | 0.0 | 0.0 | 0.00 | 0.00 | 0.00 | 74 | 1012.1 | |
| 20260504081517 | 9 | 0.0 | 0.0 | 0.00 | 0.00 | 0.00 | 70 | 1011.7 | |
| 20260504080518 | 9 | 0.0 | 0.0 | 0.00 | 0.00 | 0.00 | 71 | 1011.7 | |
| 20260504050518 | 10 | 0.0 | 0.0 | 0.00 | 0.00 | 0.00 | 67 | 1011.2 | |
| 20260504045517 | 10 | 0.0 | 0.0 | 0.00 | 0.00 | 0.00 | 66 | 1011.1 | |
| 20260504044518 | 10 | 0.0 | 0.0 | 0.00 | 0.00 | 0.00 | 65 | 1011.1 | |
| 20260504043516 | 10 | 0.0 | 0.0 | 0.00 | 0.00 | 0.00 | 64 | 1011.0 | |
| 20260504042517 | 10 | 0.0 | 0.0 | 0.00 | 0.00 | 0.00 | 63 | 1011.0 | |
| 20260504041538 | 10 | 0.0 | 0.0 | 0.00 | 0.00 | 0.00 | 64 | 1011.0 | |
| 20260504040516 | 10 | 0.0 | 0.0 | 0.00 | 0.00 | 0.00 | 64 | 1010.8 | |
| 20260504035517 | 10 | 0.0 | 0.0 | 0.00 | 0.00 | 0.00 | 66 | 1010.7 | |
| 20260504034515 | 10 | 0.0 | 0.0 | 0.00 | 0.00 | 0.00 | 65 | 1010.7 | |
| 20260504033515 | 9 | 0.0 | 0.0 | 0.00 | 0.00 | 0.00 | 63 | 1010.7 | |
| 20260504032516 | 9 | 0.0 | 0.0 | 0.00 | 0.00 | 0.00 | 61 | 1010.6 | |
| 20260504031515 | 10 | 0.0 | 0.0 | 0.00 | 0.00 | 0.00 | 60 | 1010.6 | |
| 20260504030519 | 10 | 0.0 | 0.0 | 0.00 | 0.00 | 0.00 | 58 | 1010.6 | |
| 20260504025515 | 10 | 0.0 | 0.0 | 0.00 | 0.00 | 0.00 | 56 | 1010.6 | |
| 20260504024518 | 10 | 0.0 | 0.0 | 0.00 | 0.00 | 0.00 | 54 | 1010.6 | |
| 20260504023518 | 10 | 0.0 | 0.0 | 0.00 | 0.00 | 0.00 | 52 | 1010.6 |